Temperature
19 19 19 19 18 18 19 20 20 20 20 20 20 20 19 18 19 18 18 19 19 19 19 19 18 19 19 19 18 19 19 19 19 19 19 19 19 19 19 19 19 19 19 19 19 19 19 19 19
19 19 19 18 18 19 19 20 20 20 20 20 20 19 18 18 18 18 18 18 18 18 18 18 18 18 18 18 18 18 18 18 18 19 19 19 19 19 19 19 19 19 19 19 19 19 19 19 19
20 19 19 17 18 19 20 20 19 20 20 20 19 18 18 18 18 18 18 18 18 18 18 18 18 18 18 18 18 18 18 18 18 18 18 18 19 19 19 19 19 19 19 19 19 19 18 18 18
20 19 19 18 19 19 19 19 19 20 20 19 19 18 18 18 18 18 18 18 18 18 18 18 18 17 17 17 17 17 17 18 18 18 18 18 18 18 18 19 19 19 19 19 18 18 18 18 18
20 19 18 19 20 20 19 20 20 20 20 19 18 18 18 18 18 18 18 18 18 18 18 17 17 17 17 17 17 17 17 17 17 17 17 17 18 18 18 18 18 18 18 18 18 18 18 18 18
20 18 18 19 20 20 20 20 20 20 19 19 18 17 18 18 18 18 18 18 18 18 18 18 17 17 17 17 17 17 17 17 17 17 17 17 17 17 17 18 18 18 18 18 18 18 18 18 18
20 18 19 19 19 20 20 20 20 19 19 19 19 17 18 18 18 18 18 18 18 18 18 17 17 17 17 17 17 17 17 17 17 17 17 17 17 17 17 17 17 17 18 18 18 18 18 18 18
21 18 19 19 19 20 20 20 20 20 19 19 19 18 18 18 18 18 18 18 18 18 17 17 17 17 16 16 16 16 16 16 16 16 16 16 16 17 17 17 17 17 17 17 17 18 18 18 18
20 18 19 19 19 20 20 20 20 20 20 19 19 19 19 18 18 18 18 18 18 17 17 17 16 16 16 16 16 16 16 16 16 16 16 16 16 16 16 16 17 17 17 17 17 17 17 18 17
20 18 19 20 19 19 20 20 20 20 19 19 19 19 19 18 18 18 18 18 17 17 17 16 16 16 15 15 15 15 15 15 15 15 16 16 16 16 16 16 16 16 17 17 17 17 17 17 17
19 19 20 20 20 20 20 20 20 19 18 19 19 19 19 18 18 18 18 18 17 17 17 16 16 15 15 15 15 15 15 15 15 15 15 15 15 15 16 16 16 16 16 16 17 17 17 17 17
19 19 20 20 20 20 20 20 19 20 20 21 20 20 19 19 18 18 18 17 17 17 16 16 15 15 15 15 15 14 14 14 14 14 15 15 15 15 15 15 16 16 16 16 16 16 17 17 17
19 19 20 20 20 20 20 19 19 20 21 20 20 19 19 19 19 18 18 17 17 16 16 15 15 15 14 14 14 14 14 14 14 14 14 14 15 15 15 15 15 15 15 16 16 16 16 16 16
19 19 19 19 20 20 19 19 19 20 20 20 19 19 19 19 18 18 17 17 17 16 16 15 15 14 14 14 14 14 14 14 14 14 14 14 14 14 14 15 15 15 15 15 15 16 16 16 16
19 19 19 19 19 19 19 19 19 20 20 19 19 19 19 18 18 18 18 17 17 16 16 15 14 14 14 14 14 14 14 13 13 14 13 14 14 14 14 14 14 14 15 15 15 15 15 16 16
19 19 19 19 19 19 19 19 19 20 19 19 19 19 18 18 18 18 17 17 16 16 15 15 14 14 14 13 13 13 13 13 13 13 13 13 13 13 14 14 14 14 14 15 15 15 15 15 16
18 18 19 19 19 19 19 19 19 19 19 18 18 18 18 18 18 17 17 17 16 16 15 14 14 13 13 13 13 13 13 13 13 13 13 13 13 13 13 13 14 14 14 14 14 14 15 15 15
18 18 19 19 19 18 18 18 18 18 18 18 18 18 18 18 18 17 17 16 16 15 15 14 14 13 13 13 13 13 13 13 12 12 13 13 13 13 13 13 13 13 14 14 14 14 14 14 15
19 19 19 20 20 19 18 18 18 18 18 17 17 18 18 18 18 17 17 16 16 15 14 14 13 13 13 13 13 13 13 12 12 12 12 12 12 13 13 13 13 13 13 13 14 14 14 14 14
19 19 20 20 20 19 18 18 17 17 17 18 18 18 18 18 18 17 17 16 16 15 14 14 13 13 13 13 13 12 12 12 12 12 12 12 12 12 12 13 13 13 13 13 13 13 13 14 14
19 19 20 20 19 19 19 18 18 17 17 18 18 18 18 18 18 17 17 16 16 15 14 14 13 13 13 12 12 12 12 12 12 12 12 12 12 12 12 12 12 13 13 13 13 13 13 13 13
19 20 20 20 18 17 18 17 17 17 17 16 17 18 18 18 18 17 17 16 16 15 14 14 13 13 13 12 12 12 12 12 12 12 12 12 12 12 12 12 12 12 12 13 13 13 13 13 13
20 19 19 19 18 17 17 17 16 16 17 16 16 18 18 18 18 18 17 16 16 15 14 14 13 13 13 12 12 12 12 12 12 12 12 12 12 12 12 12 12 12 12 12 12 13 13 13 13
19 18 17 15 15 17 17 16 16 15 16 17 17 18 18 19 18 17 17 16 15 15 14 14 13 13 13 12 12 12 12 12 12 12 12 12 12 12 12 12 12 12 12 12 12 12 12 13 13
19 17 17 17 16 16 17 16 16 17 16 17 17 18 19 19 18 17 17 16 16 15 14 14 13 13 13 13 12 12 12 12 11 11 12 12 12 12 12 12 12 12 12 12 12 12 12 12 13
18 18 17 18 17 16 16 16 16 17 17 18 18 19 19 18 18 18 17 16 16 15 14 14 13 13 13 13 12 12 12 12 12 11 11 11 11 11 11 12 12 12 12 12 12 12 12 12 13
18 17 16 15 16 16 16 16 17 18 18 17 17 18 19 19 18 18 17 16 16 15 15 14 14 13 13 13 12 12 12 12 12 11 11 11 11 11 12 12 12 12 12 12 12 12 12 12 12
18 15 14 15 16 16 16 17 16 18 17 17 16 17 19 19 18 18 17 17 16 15 15 14 14 13 13 13 13 12 12 12 12 12 12 11 11 12 12 12 12 12 12 12 12 12 12 12 12
18 16 14 13 14 15 16 16 16 17 17 16 16 18 19 19 19 18 17 17 16 15 15 14 14 14 13 13 13 12 12 12 12 12 12 11 11 12 12 12 12 12 12 12 12 12 12 12 12
19 17 15 16 15 13 14 15 17 16 16 17 18 19 20 19 19 18 18 17 16 16 15 15 14 14 13 13 13 13 12 12 12 12 12 12 12 12 12 12 12 12 12 12 12 12 12 12 12
Wind_Speed
3 6 4 3 3 3 1 3 2 2 2 3 5 6 7 5 3 2 2 1 2 3 4 6 6 6 6 5 5 5 5 5 6 6 6 6 5 5 5 4 4 3 3 2 2 2 2 3 3
5 4 3 3 3 1 2 3 2 1 2 2 5 5 6 5 3 2 1 1 3 3 3 3 4 5 5 5 5 5 5 6 5 6 6 6 6 6 5 5 5 4 4 4 3 2 2 1 1
5 4 3 3 2 2 2 1 1 2 3 2 4 5 4 3 2 1 0 3 4 3 2 1 2 3 3 4 4 5 6 5 5 6 6 7 7 7 7 6 6 6 5 5 5 4 4 3 1
4 3 3 2 1 2 2 2 2 2 3 4 3 4 3 4 2 1 3 4 4 2 2 1 2 2 2 3 4 5 5 6 6 7 8 8 9 8 8 8 8 7 7 7 6 6 6 5 3
3 3 2 1 1 1 2 1 1 1 2 3 3 4 3 4 3 4 4 4 3 2 1 0 2 2 2 3 4 5 6 6 7 8 8 9 9 9 9 9 9 9 9 8 8 8 7 6 5
3 3 3 1 1 2 1 1 2 3 3 3 3 4 1 2 2 3 3 3 2 2 1 2 2 1 1 2 4 5 6 6 7 8 8 9 10 9 10 9 9 9 10 10 9 9 9 8 7
3 3 2 2 1 2 0 1 2 3 3 2 4 5 1 1 1 3 4 4 3 3 3 4 4 4 5 5 5 5 6 6 7 7 8 9 9 9 10 10 9 10 10 10 10 10 10 9 8
4 4 2 1 2 2 0 1 2 2 3 3 4 6 4 3 4 5 5 4 4 3 3 3 5 5 5 6 7 7 7 7 7 8 8 9 9 9 10 9 9 10 10 10 10 10 10 10 9
3 4 2 3 4 3 1 2 1 2 4 3 2 3 4 8 6 5 3 3 2 3 3 3 4 5 6 5 7 8 8 7 7 7 8 8 7 7 8 8 9 10 11 9 9 9 10 9 9
4 3 5 3 4 4 3 3 4 3 3 2 3 4 6 7 7 5 3 2 0 1 2 2 3 4 5 5 6 7 7 7 6 6 7 6 6 6 7 7 9 9 9 9 9 9 8 8 6
3 5 3 2 3 4 4 3 3 7 4 6 7 8 8 6 6 5 4 3 2 1 1 2 2 3 3 3 4 5 5 6 6 6 6 5 5 5 5 4 6 7 6 5 6 6 5 4 4
3 2 2 1 2 3 4 3 3 6 6 5 9 11 8 8 7 6 5 3 1 1 0 2 2 2 3 3 3 3 3 3 4 5 5 3 2 2 3 2 3 4 3 3 3 2 4 4 5
2 1 1 1 2 1 2 2 3 4 2 6 8 9 8 8 6 4 4 3 2 2 1 1 2 2 3 3 3 3 3 3 4 5 5 3 1 2 2 2 2 3 3 2 2 2 3 3 3
2 1 0 0 2 1 2 1 2 5 5 8 9 8 8 7 6 4 4 3 3 2 1 1 1 2 3 3 3 2 3 3 4 4 5 4 2 2 2 3 3 2 3 2 2 3 3 3 3
2 2 2 1 2 1 3 2 6 5 7 8 8 7 6 5 5 6 6 5 3 2 1 1 0 2 3 3 3 2 3 3 3 4 5 5 4 3 2 2 2 3 3 2 2 2 2 2 2
3 3 2 3 3 3 4 7 6 6 9 8 7 6 5 4 5 5 5 4 3 1 0 1 2 3 3 3 3 3 3 3 3 4 4 5 5 3 2 2 3 3 2 1 2 2 2 2 2
2 1 4 4 4 4 5 7 3 5 9 9 7 6 5 5 4 5 4 4 3 2 1 1 2 2 3 4 3 3 3 3 3 3 4 4 5 4 2 2 3 3 2 1 2 1 2 2 2
5 5 4 5 4 5 6 7 4 5 8 8 7 6 6 7 7 5 5 4 2 1 0 1 2 3 3 3 3 3 3 3 3 3 4 5 4 4 2 2 2 2 1 1 1 1 1 2 2
6 6 5 5 4 6 7 8 6 5 7 8 7 7 8 8 5 4 4 3 2 1 1 1 2 3 2 2 2 3 3 4 4 3 4 5 5 4 2 2 2 2 1 1 1 0 1 1 1
5 4 4 3 2 4 3 6 6 5 8 8 10 9 9 6 4 4 4 3 3 2 2 3 3 3 2 2 2 2 3 3 3 4 4 5 5 4 3 2 2 1 1 1 1 0 1 1 1
4 5 5 3 2 3 2 7 5 2 3 5 6 7 7 9 9 7 6 5 3 4 4 3 4 3 3 3 2 2 3 3 3 4 4 4 5 4 3 2 1 1 0 1 1 1 1 1 1
5 5 4 4 3 2 1 4 6 4 3 5 7 7 8 8 7 7 6 6 6 6 4 4 4 3 3 2 2 2 2 2 3 3 4 5 5 4 4 3 2 2 1 1 2 1 1 1 1
3 3 4 3 4 2 1 2 8 3 5 7 8 9 9 9 8 8 8 7 6 5 4 3 3 3 3 2 2 2 2 2 3 3 5 5 5 4 4 3 2 2 1 2 2 1 1 1 2
6 7 7 6 5 2 3 4 7 5 7 6 6 8 9 8 8 7 6 5 4 3 3 3 3 4 3 2 2 2 3 3 4 4 5 5 4 4 5 3 3 2 2 2 2 2 1 2 2
5 6 4 4 4 5 3 3 8 7 7 7 7 8 8 8 8 7 7 6 6 5 4 3 3 4 4 3 3 3 3 2 3 4 4 4 4 4 5 5 3 3 2 2 2 1 1 1 2
5 7 6 4 4 5 3 5 8 6 5 4 5 5 7 8 8 8 8 7 6 6 5 4 4 4 4 3 3 3 3 2 2 3 3 3 3 4 5 5 4 3 2 2 1 1 1 1 2
7 4 6 6 2 2 6 7 8 2 2 2 3 5 7 8 8 8 8 7 7 6 6 6 5 5 4 3 3 3 3 2 3 3 3 3 4 4 5 5 5 4 3 2 2 1 1 1 1
5 9 6 5 3 3 7 6 5 7 7 6 6 7 8 7 7 8 7 7 7 6 5 4 4 5 4 3 2 2 2 3 3 3 4 4 5 4 5 5 5 5 4 3 2 2 2 2 2
5 5 6 5 5 5 4 7 7 8 8 9 10 9 9 9 8 8 8 7 6 5 4 4 4 4 3 3 2 2 3 3 3 3 4 4 4 4 5 5 5 5 4 3 3 2 2 2 2
5 7 8 5 4 5 4 8 7 7 7 7 9 8 7 8 7 7 7 5 5 5 5 5 5 4 4 3 2 2 2 2 3 3 4 4 4 4 4 5 5 5 4 4 3 3 3 3 3
Wind_Direction
181 115 91 64 57 55 299 294 306 346 37 30 41 67 85 72 67 104 326 76 135 146 173 183 176 175 178 185 192 198 201 197 192 190 188 186 182 182 181 180 179 178 176 172 161 138 122 107 96
127 103 71 59 83 82 294 298 334 356 128 110 48 52 65 62 52 68 9 66 111 130 149 179 191 194 196 200 206 209 218 217 214 213 211 212 209 208 206 209 207 206 205 206 212 215 197 158 117
122 86 89 81 102 179 228 280 232 70 90 80 66 48 63 39 19 54 308 113 102 110 121 201 215 223 226 224 230 238 241 239 236 239 235 233 231 227 223 225 224 224 224 224 224 227 225 225 220
107 73 75 88 194 236 229 242 195 128 72 55 90 67 51 8 344 118 107 111 111 115 122 207 240 252 263 264 263 261 263 264 259 257 257 252 247 243 238 236 236 235 236 236 235 232 230 235 239
75 91 68 33 265 275 261 252 187 95 73 60 89 92 42 356 39 84 98 109 121 106 85 186 228 246 264 275 273 274 276 275 274 273 272 269 264 260 255 250 246 243 242 242 242 238 235 238 241
75 78 91 223 276 329 326 4 86 87 98 99 101 109 96 4 59 84 91 88 92 93 48 22 357 358 337 308 300 301 296 288 282 282 284 283 278 273 269 265 262 257 251 249 247 242 237 239 242
122 109 140 188 238 307 303 68 110 120 111 131 129 114 134 327 115 99 88 75 61 51 38 21 12 11 357 342 331 325 316 304 298 299 298 297 292 284 275 269 267 265 262 255 250 245 240 242 243
138 110 103 166 193 244 270 72 108 112 115 105 121 140 179 196 130 96 74 59 46 40 28 17 11 8 357 345 337 334 328 324 318 315 309 307 305 300 292 284 277 271 266 262 257 251 246 245 246
107 90 178 205 195 225 170 116 87 73 101 78 94 158 166 135 120 107 83 43 28 26 16 15 10 1 354 343 350 349 341 339 335 329 322 318 315 311 300 292 288 282 275 271 267 260 255 253 253
105 148 213 199 185 187 182 171 160 107 98 94 75 77 112 125 134 142 152 161 128 357 358 15 11 4 1 358 358 353 350 344 338 328 321 314 308 306 301 302 297 295 288 280 275 269 263 259 253
149 184 207 204 183 163 163 164 154 139 188 193 177 159 148 146 156 169 179 186 192 210 356 3 358 0 5 354 349 349 347 345 341 337 328 318 315 313 311 310 307 306 297 286 280 278 265 253 242
154 219 179 198 142 145 160 152 167 190 217 194 171 160 160 166 180 184 183 182 169 147 298 347 358 4 359 354 342 340 341 339 339 338 338 338 329 320 312 303 293 293 290 282 273 265 262 258 246
162 205 215 208 120 134 129 156 209 234 194 134 143 153 168 178 185 181 170 170 167 181 242 335 7 13 4 1 340 357 342 338 334 337 341 346 326 311 307 301 303 292 278 270 271 260 258 249 246
171 163 269 6 112 109 130 139 199 241 146 144 157 171 181 182 176 161 167 180 194 212 247 340 15 11 11 3 344 335 346 342 342 341 340 342 332 311 314 311 305 298 283 267 255 246 243 246 240
100 79 1 244 154 159 117 266 233 216 151 162 175 178 177 184 175 179 186 186 197 214 275 330 209 23 9 353 343 348 342 346 343 336 338 339 335 326 311 303 300 299 297 276 260 255 236 242 246
65 60 312 271 169 158 149 254 250 177 162 179 186 185 181 190 194 195 190 186 189 181 90 346 17 19 356 347 338 336 342 347 340 335 336 337 337 330 316 297 290 300 307 284 255 240 236 236 240
60 179 250 279 192 162 188 249 278 171 173 188 193 195 192 196 205 206 196 191 184 178 174 334 352 343 338 341 339 337 344 345 338 341 342 338 338 334 320 294 294 311 298 280 272 232 224 239 240
196 202 233 246 209 172 211 251 267 186 185 197 197 200 201 203 214 201 192 188 175 161 208 300 321 326 333 338 344 344 349 344 343 342 340 340 341 338 330 299 311 322 307 298 276 243 239 242 239
171 181 220 244 188 179 224 256 264 205 198 203 203 204 209 216 218 191 184 176 161 194 266 285 305 317 336 344 342 337 329 325 331 332 341 343 344 345 333 320 324 330 313 295 288 242 243 260 206
158 182 232 275 154 179 248 278 276 214 209 207 205 206 207 205 197 194 192 189 201 228 250 268 279 296 311 304 289 273 285 297 297 311 333 345 346 344 338 327 316 316 311 333 325 216 190 233 181
181 192 211 206 64 52 11 317 307 287 224 202 199 199 200 200 201 202 202 211 222 237 241 250 261 281 302 316 334 345 348 337 340 339 336 331 339 342 335 328 321 322 326 282 280 242 191 223 238
221 223 185 146 108 310 62 287 292 298 278 225 210 200 204 206 200 202 206 216 226 235 240 249 259 280 303 327 349 354 349 325 305 308 310 320 334 340 341 334 334 335 330 302 284 237 217 188 217
179 63 99 100 123 23 15 182 287 313 265 250 227 213 211 207 201 206 210 218 227 231 233 247 267 284 306 329 328 337 325 296 303 315 329 336 336 338 340 333 334 331 315 295 291 296 239 198 200
122 74 59 51 70 325 239 177 278 243 229 247 229 212 207 204 204 213 219 221 233 236 239 246 262 281 302 322 325 320 310 318 333 339 343 340 335 336 345 342 340 327 313 299 291 281 248 215 211
93 88 34 356 6 258 272 204 251 256 239 227 223 215 205 197 196 205 211 218 228 234 236 239 251 275 297 309 309 304 302 310 317 321 330 336 336 334 334 340 337 327 316 305 302 303 291 240 217
147 135 156 205 234 283 311 238 256 262 269 236 214 197 191 194 199 207 213 216 224 234 235 233 243 263 286 293 297 305 310 308 304 312 317 322 318 313 322 335 338 333 334 338 335 327 301 273 251
128 140 153 131 160 293 288 286 301 238 244 196 183 179 200 207 208 215 220 221 224 231 231 226 231 253 273 280 293 309 317 318 317 325 334 331 327 330 345 349 351 352 352 354 5 355 326 326 299
126 138 103 112 144 276 298 284 257 251 239 231 219 218 223 217 215 219 221 222 225 227 231 224 221 237 256 270 281 299 309 313 320 338 345 341 338 346 353 356 356 359 4 8 17 1 352 5 339
114 97 102 107 143 157 275 278 231 228 222 218 225 223 220 216 214 216 218 220 223 226 221 220 223 234 252 262 277 304 314 323 339 344 335 335 339 348 353 351 354 360 4 6 14 5 9 10 354
177 164 147 149 195 167 188 270 268 246 240 222 229 229 221 216 213 212 213 211 216 223 223 222 223 228 239 243 259 286 307 333 343 332 329 337 343 347 349 350 357 359 2 5 9 3 4 3 354
Height
1516 1516 1517 1519 1521 1528 1529 1523 1518 1516 1515 1516 1515 1515 1516 1520 1523 1527 1524 1521 1522 1524 1525 1526 1527 1529 1529 1530 1531 1532 1532 1533 1533 1533 1533 1533 1533 1533 1533 1533 1533 1533 1533 1533 1533 1533 1533 1533 1533
1516 1517 1519 1520 1526 1535 1530 1521 1518 1516 1516 1516 1517 1517 1518 1520 1522 1522 1522 1522 1523 1524 1525 1527 1528 1528 1529 1530 1531 1531 1532 1532 1532 1532 1532 1532 1532 1532 1532 1532 1532 1532 1532 1533 1533 1533 1533 1533 1533
1517 1518 1520 1522 1527 1532 1527 1520 1518 1517 1516 1517 1518 1519 1521 1522 1523 1523 1523 1523 1524 1525 1526 1527 1528 1528 1529 1530 1530 1530 1531 1531 1531 1531 1531 1531 1531 1531 1531 1531 1531 1531 1531 1532 1532 1532 1532 1533 1533
1517 1519 1521 1525 1527 1524 1521 1518 1517 1517 1517 1518 1519 1521 1522 1524 1524 1524 1524 1524 1525 1526 1526 1527 1528 1528 1528 1528 1528 1529 1529 1529 1529 1529 1529 1530 1530 1529 1530 1530 1530 1530 1530 1530 1531 1531 1531 1532 1532
1517 1518 1523 1527 1524 1520 1518 1517 1517 1517 1518 1519 1520 1522 1524 1524 1524 1525 1525 1526 1526 1527 1527 1527 1527 1527 1527 1527 1527 1527 1527 1527 1527 1527 1527 1528 1528 1528 1528 1528 1528 1528 1529 1529 1529 1530 1530 1531 1531
1517 1518 1527 1530 1524 1519 1517 1517 1518 1518 1519 1520 1521 1522 1525 1525 1525 1525 1526 1527 1527 1527 1527 1528 1528 1527 1526 1526 1525 1525 1525 1525 1525 1525 1525 1525 1525 1525 1525 1526 1526 1526 1527 1527 1527 1528 1528 1529 1530
1517 1520 1526 1526 1525 1522 1518 1518 1518 1519 1519 1521 1521 1523 1525 1525 1525 1526 1526 1527 1527 1528 1527 1527 1527 1526 1525 1524 1524 1523 1523 1523 1523 1522 1522 1522 1522 1523 1523 1523 1523 1524 1524 1525 1525 1526 1527 1527 1528
1515 1519 1523 1525 1525 1522 1518 1518 1519 1519 1520 1521 1522 1522 1524 1525 1525 1526 1527 1527 1528 1528 1527 1527 1526 1525 1524 1523 1522 1522 1521 1521 1520 1519 1519 1519 1519 1520 1520 1520 1521 1521 1522 1522 1523 1524 1525 1525 1526
1515 1522 1526 1523 1523 1520 1517 1518 1519 1519 1519 1520 1521 1522 1523 1524 1525 1526 1527 1527 1527 1527 1527 1526 1525 1524 1523 1521 1520 1520 1519 1518 1517 1517 1517 1516 1516 1517 1517 1517 1517 1518 1519 1519 1520 1521 1522 1523 1524
1514 1523 1520 1516 1516 1516 1516 1517 1517 1518 1519 1520 1521 1522 1523 1524 1525 1526 1527 1527 1527 1527 1526 1525 1524 1523 1521 1520 1519 1518 1517 1516 1515 1515 1514 1514 1514 1514 1514 1514 1514 1515 1515 1516 1517 1518 1519 1520 1522
1512 1516 1513 1513 1513 1513 1515 1516 1516 1517 1519 1519 1519 1521 1523 1524 1525 1526 1526 1526 1526 1526 1525 1524 1523 1521 1520 1518 1517 1516 1515 1514 1513 1512 1512 1512 1511 1511 1511 1511 1511 1512 1512 1513 1514 1515 1516 1517 1519
1512 1512 1512 1512 1512 1513 1514 1515 1516 1516 1517 1517 1519 1520 1522 1523 1524 1525 1526 1526 1526 1526 1525 1524 1522 1520 1519 1517 1515 1514 1513 1512 1511 1510 1509 1509 1509 1508 1508 1508 1508 1509 1509 1510 1511 1512 1513 1515 1516
1511 1511 1511 1511 1511 1512 1513 1515 1516 1515 1516 1517 1519 1520 1522 1523 1524 1525 1526 1526 1526 1525 1524 1523 1521 1519 1517 1515 1514 1512 1511 1510 1509 1508 1507 1507 1506 1506 1506 1505 1505 1506 1506 1507 1508 1509 1510 1511 1513
1510 1511 1511 1511 1511 1512 1513 1515 1516 1514 1515 1516 1518 1520 1521 1522 1524 1525 1525 1526 1525 1525 1523 1522 1520 1518 1516 1514 1512 1511 1509 1508 1506 1506 1505 1504 1504 1503 1503 1503 1503 1503 1503 1504 1504 1506 1507 1508 1510
1510 1512 1512 1511 1512 1512 1514 1516 1514 1512 1514 1516 1517 1519 1521 1522 1523 1524 1525 1525 1525 1524 1523 1521 1519 1517 1515 1513 1511 1509 1507 1506 1505 1504 1503 1502 1501 1501 1500 1500 1500 1500 1500 1500 1501 1502 1504 1505 1506
1512 1516 1519 1512 1511 1512 1517 1520 1511 1511 1513 1515 1517 1518 1520 1521 1522 1524 1524 1524 1524 1523 1522 1520 1518 1516 1514 1512 1509 1508 1506 1504 1503 1502 1501 1500 1499 1498 1498 1497 1497 1497 1497 1498 1498 1499 1500 1501 1502
1517 1522 1520 1514 1510 1511 1515 1516 1510 1510 1512 1514 1516 1517 1519 1520 1521 1523 1523 1524 1523 1523 1521 1519 1517 1515 1513 1511 1508 1507 1505 1503 1501 1500 1499 1498 1497 1496 1495 1495 1495 1495 1495 1495 1495 1496 1497 1498 1499
1521 1521 1519 1516 1510 1512 1515 1513 1509 1509 1511 1513 1514 1516 1518 1519 1520 1521 1522 1523 1522 1522 1520 1519 1517 1514 1512 1510 1508 1506 1504 1502 1500 1499 1497 1496 1495 1494 1493 1493 1492 1492 1492 1492 1493 1493 1494 1495 1496
1509 1514 1516 1511 1507 1511 1513 1512 1508 1509 1510 1512 1513 1514 1516 1517 1519 1520 1521 1521 1521 1520 1519 1518 1516 1513 1511 1509 1507 1504 1503 1501 1499 1497 1496 1494 1493 1492 1491 1490 1490 1490 1490 1490 1491 1491 1492 1492 1493
1508 1513 1514 1510 1507 1510 1513 1512 1507 1507 1507 1508 1509 1511 1513 1515 1517 1518 1519 1520 1520 1519 1518 1517 1515 1513 1510 1508 1506 1504 1502 1500 1498 1496 1494 1493 1492 1491 1490 1489 1488 1488 1488 1488 1488 1489 1489 1489 1491
1509 1511 1511 1511 1510 1511 1513 1516 1510 1506 1505 1506 1508 1509 1511 1513 1515 1516 1517 1518 1519 1518 1517 1516 1514 1512 1510 1508 1505 1503 1501 1499 1497 1495 1493 1492 1490 1489 1488 1488 1487 1487 1486 1486 1486 1487 1487 1487 1488
1510 1503 1505 1509 1517 1523 1519 1531 1514 1508 1506 1505 1505 1507 1509 1511 1513 1515 1516 1517 1517 1517 1516 1515 1513 1511 1509 1507 1505 1503 1501 1498 1497 1495 1493 1491 1490 1488 1487 1487 1486 1485 1485 1485 1485 1485 1485 1486 1486
1504 1502 1506 1510 1517 1525 1524 1530 1521 1510 1507 1504 1502 1504 1506 1509 1511 1513 1514 1515 1516 1516 1515 1514 1512 1511 1509 1507 1505 1503 1501 1499 1497 1494 1492 1491 1489 1488 1487 1486 1485 1484 1484 1483 1483 1483 1483 1484 1485
1502 1507 1513 1521 1526 1534 1524 1530 1525 1513 1505 1501 1499 1501 1503 1506 1509 1511 1513 1514 1514 1514 1514 1513 1512 1510 1508 1506 1504 1503 1501 1499 1496 1494 1492 1491 1489 1488 1486 1485 1484 1483 1483 1482 1482 1482 1482 1482 1483
1503 1517 1533 1534 1542 1537 1524 1527 1521 1503 1499 1498 1497 1498 1501 1504 1507 1509 1511 1512 1512 1513 1512 1512 1511 1509 1508 1506 1504 1502 1501 1499 1496 1494 1492 1491 1489 1487 1486 1485 1484 1483 1482 1481 1481 1481 1480 1480 1481
1506 1513 1532 1540 1543 1537 1525 1526 1511 1497 1495 1495 1495 1497 1499 1502 1505 1507 1509 1510 1511 1511 1511 1511 1510 1509 1507 1506 1504 1502 1501 1499 1497 1495 1493 1491 1489 1487 1486 1484 1483 1482 1481 1480 1480 1479 1479 1479 1479
1507 1513 1516 1531 1534 1538 1531 1519 1504 1495 1494 1494 1495 1496 1498 1500 1503 1505 1507 1508 1509 1510 1510 1510 1509 1508 1507 1505 1504 1502 1501 1499 1497 1495 1493 1491 1489 1487 1485 1484 1482 1481 1480 1479 1479 1478 1478 1478 1478
1501 1511 1523 1531 1539 1541 1532 1523 1515 1498 1495 1494 1494 1494 1496 1498 1501 1503 1505 1506 1507 1508 1509 1508 1508 1507 1506 1505 1504 1502 1501 1499 1497 1495 1493 1491 1489 1487 1485 1484 1482 1481 1480 1479 1478 1478 1477 1477 1477
1506 1512 1521 1532 1534 1543 1541 1527 1498 1493 1490 1491 1491 1492 1494 1496 1498 1500 1502 1504 1506 1507 1507 1507 1507 1506 1505 1504 1503 1502 1501 1499 1498 1496 1494 1492 1490 1488 1486 1484 1482 1481 1480 1479 1478 1477 1477 1477 1476
1497 1504 1514 1524 1530 1537 1540 1526 1490 1489 1487 1487 1488 1490 1492 1494 1496 1498 1500 1502 1503 1504 1505 1505 1505 1505 1504 1504 1503 1502 1501 1499 1498 1496 1494 1493 1491 1489 1487 1485 1483 1482 1480 1479 1478 1477 1477 1476 1475